SCP
0 0 0 0 0 0 0 0 0 0 0 0 0 0 0 0 0 0 0 0 0 0
0 0 0 0 0 0 0 0 0 0 0 0 0 0 0 0 0 0 0 0 0 0
0 0 0 0 0 0 0 0 0 0 0 0 0 0 0 0 0 0 0 0 0 0
0 0 0 0 0 0 0 0 0 0 0 0 0 0 0 0 0 0 0 0 0 0
0 0 0 0 0 0 0 0 0 0 0 0 0 0 0 0 0 0 0 0 0 0
0 0 0 0 0 0 0 0 0 0 0 0 0 0 0 0 0 0 0 0 0 0
0 0 0 0 0 0 0 0 0 0 0 0 0 0 0 0 0 0 0 0 0 0
0 0 0 0 0 0 0 0 0 0 0 0 0 0 0 0 0 0 0 0 0 0
0 0 0 0 0 0 0 0 0 0 0 0 0 0 0 0 0 0 0 0 0 0
0 0 0 0 0 0 0 0 0 0 0 0 0 0 0 0 0 0 0 0 0 0
0 0 0 0 0 0 0 0 0 0 0 0 0 0 0 0 0 0 0 0 0 0
0 0 0 0 0 0 0 0 0 0 0 0 0 0 0 0 0 0 0 0 0 0
0 0 0 0 0 0 0 0 0 0 0 0 0 0 0 0 0 0 0 0 0 0
0 0 0 0 0 0 0 0 0 0 0 0 0 0 0 0 0 0 0 0 0 0
Wind_Speed_500mb
69 66 64 64 63 70 70 69 71 74 73 65 63 55 57 66 69 68 60 56 51 45
65 64 64 63 58 60 67 66 69 71 76 72 69 63 67 69 69 65 60 57 51 43
63 59 62 60 63 66 67 70 72 82 78 75 70 66 67 70 68 66 61 54 47 40
59 56 59 58 61 62 65 70 79 84 79 76 73 70 72 70 68 65 59 53 47 40
56 55 60 64 66 68 68 72 77 78 75 78 75 75 75 73 68 63 59 53 45 36
59 58 63 66 69 68 70 71 74 79 77 78 76 77 76 71 67 62 55 48 41 33
61 60 62 66 69 68 68 68 72 79 84 80 80 82 79 74 70 63 55 48 40 30
61 60 64 72 74 72 73 74 78 87 89 84 87 83 77 70 62 59 58 54 44 27
67 65 68 74 77 75 76 77 80 86 86 89 88 83 74 67 63 61 56 51 40 23
73 71 69 75 78 76 75 76 79 85 88 89 87 78 70 66 64 61 59 50 40 29
76 77 72 76 80 78 77 77 79 86 90 88 82 76 71 71 67 67 60 51 33 50
77 79 80 76 81 81 79 76 80 86 85 86 84 79 79 78 74 69 62 49 45 54
77 81 81 77 79 79 78 74 77 82 84 86 84 80 82 77 76 77 70 54 48 57
69 73 73 72 75 79 79 78 80 79 81 84 84 81 81 84 82 77 79 58 57 55
Wind_Direction_500mb
229 227 225 222 225 226 230 231 216 220 216 208 208 205 214 214 214 213 216 216 213 213
229 226 223 223 224 224 221 228 225 218 212 208 206 207 211 214 213 213 211 209 206 204
229 227 224 223 225 228 228 221 225 216 208 208 207 211 213 210 209 210 206 202 200 200
228 227 224 224 224 221 226 229 228 217 210 207 210 209 208 209 207 204 203 200 200 199
231 228 222 224 224 224 228 230 227 220 210 208 209 210 208 207 206 205 203 202 198 194
232 228 225 224 227 229 230 230 224 219 213 210 212 210 207 208 206 204 203 201 196 189
232 230 227 227 227 231 229 229 225 219 215 215 214 212 209 206 204 202 200 195 189 185
232 233 226 226 227 230 229 230 228 222 220 214 213 212 209 206 203 202 197 192 187 200
230 231 228 227 228 230 230 229 226 223 219 212 212 211 210 208 206 204 200 194 192 217
234 233 232 230 230 231 233 233 228 223 215 215 214 208 211 211 207 206 200 197 210 244
234 234 233 230 230 232 232 232 229 223 217 214 210 210 217 215 208 204 201 210 226 253
236 234 233 231 231 231 231 229 228 224 216 212 212 214 217 212 208 204 207 217 236 258
238 237 235 233 232 232 232 231 228 223 214 214 212 214 217 218 211 210 216 220 242 260
238 237 236 234 232 232 230 227 225 222 212 212 212 216 219 222 216 222 224 229 244 258
Wind_Speed_850mb
69 66 64 64 63 70 70 69 71 74 73 65 63 55 57 66 69 68 60 56 51 45
65 64 64 63 58 60 67 66 69 71 76 72 69 63 67 69 69 65 60 57 51 43
63 59 62 60 63 66 67 70 72 82 78 75 70 66 67 70 68 66 61 54 47 40
59 56 59 58 61 62 65 70 79 84 79 76 73 70 72 70 68 65 59 53 47 40
56 55 60 64 66 68 68 72 77 78 75 78 75 75 75 73 68 63 59 53 45 36
59 58 63 66 69 68 70 71 74 79 77 78 76 77 76 71 67 62 55 48 41 33
61 60 62 66 69 68 68 68 72 79 84 80 80 82 79 74 70 63 55 48 40 30
61 60 64 72 74 72 73 74 78 87 89 84 87 83 77 70 62 59 58 54 44 27
67 65 68 74 77 75 76 77 80 86 86 89 88 83 74 67 63 61 56 51 40 23
73 71 69 75 78 76 75 76 79 85 88 89 87 78 70 66 64 61 59 50 40 29
76 77 72 76 80 78 77 77 79 86 90 88 82 76 71 71 67 67 60 51 33 50
77 79 80 76 81 81 79 76 80 86 85 86 84 79 79 78 74 69 62 49 45 54
77 81 81 77 79 79 78 74 77 82 84 86 84 80 82 77 76 77 70 54 48 57
69 73 73 72 75 79 79 78 80 79 81 84 84 81 81 84 82 77 79 58 57 55
Wind_Direction_850mb
229 227 225 222 225 226 230 231 216 220 216 208 208 205 214 214 214 213 216 216 213 213
229 226 223 223 224 224 221 228 225 218 212 208 206 207 211 214 213 213 211 209 206 204
229 227 224 223 225 228 228 221 225 216 208 208 207 211 213 210 209 210 206 202 200 200
228 227 224 224 224 221 226 229 228 217 210 207 210 209 208 209 207 204 203 200 200 199
231 228 222 224 224 224 228 230 227 220 210 208 209 210 208 207 206 205 203 202 198 194
232 228 225 224 227 229 230 230 224 219 213 210 212 210 207 208 206 204 203 201 196 189
232 230 227 227 227 231 229 229 225 219 215 215 214 212 209 206 204 202 200 195 189 185
232 233 226 226 227 230 229 230 228 222 220 214 213 212 209 206 203 202 197 192 187 200
230 231 228 227 228 230 230 229 226 223 219 212 212 211 210 208 206 204 200 194 192 217
234 233 232 230 230 231 233 233 228 223 215 215 214 208 211 211 207 206 200 197 210 244
234 234 233 230 230 232 232 232 229 223 217 214 210 210 217 215 208 204 201 210 226 253
236 234 233 231 231 231 231 229 228 224 216 212 212 214 217 212 208 204 207 217 236 258
238 237 235 233 232 232 232 231 228 223 214 214 212 214 217 218 211 210 216 220 242 260
238 237 236 234 232 232 230 227 225 222 212 212 212 216 219 222 216 222 224 229 244 258